Jennings, LA

9:54 PM CDT on October 18, 2017 (GMT -0500)
Jennings

Weather History for K3R7 - November, 2012

Change the Weather History Date:

Sunday, November 4, 2012

  Actual Average (KCWF) Record (KCWF)
Temperature  
Mean Temperature 69 °F -  
Max Temperature 76 °F 73 °F 92 °F (2016)
Min Temperature 62 °F 56 °F 39 °F (2011)
Cooling Degree Days 4    
Growing Degree Days 19 (Base 50)    
Moisture  
Dew Point 63 °F    
Average Humidity 87    
Maximum Humidity 100    
Minimum Humidity 54    
Precipitation  
Precipitation 0.18 in - - ()
Sea Level Pressure  
Sea Level Pressure 30.06 in    
Wind  
Wind Speed 2 mph ()    
Max Wind Speed 20 mph    
Max Gust Speed 26 mph    
Visibility 8.2 miles    
Events Fog , Rain , Thunderstorm    
Averages and records for this station are not official NWS values.
T = Trace of Precipitation, MM = Missing Value Source: Averaged Metar Reports

Daily Weather History Graph

Daily Weather History Graph

Search for Another Location

Airport or City:

Trip Planner

Search our weather history database for the weather conditions in past years. The results will help you decide how hot, cold, wet, or windy it might be!

Date:

Astronomy

Nov. 04, 2012 Rise Set
Actual Time 6:27 AM CST 5:20 PM CST
Civil Twilight 6:02 AM CST 5:45 PM CST
Nautical Twilight 5:34 AM CST 6:13 PM CST
Astronomical Twilight 5:05 AM CST 6:42 PM CST
Moon 10:02 PM CST (11/4) 11:07 AM CST (11/4)
Length of Visible Light 11h 42m
Length of Day
10h 52m
Waning Gibbous, 72% of the Moon is Illuminated
Nov 4
Waning Gibbous
Nov 6
Last Quarter
Nov 13
New
Nov 20
First Quarter
Nov 28
Full

Hourly Weather History & Observations

Time (CST) Temp. Dew Point Humidity Pressure Visibility Wind Dir Wind Speed Gust Speed Precip Events Conditions
12:15 AM 66.7 °F 65.1 °F 95% 30.07 in 10.0 mi South 3.5 mph - N/A   Clear
12:35 AM 67.3 °F 66.2 °F 96% 30.06 in 10.0 mi South 4.6 mph - N/A   Clear
12:55 AM 68.0 °F 67.1 °F 97% 30.06 in 10.0 mi South 3.5 mph - N/A   Clear
1:15 AM 68.0 °F 67.1 °F 97% 30.06 in 10.0 mi Calm Calm - N/A   Clear
1:35 AM 67.5 °F 66.7 °F 98% 30.06 in 10.0 mi SSE 3.5 mph - N/A   Clear
1:55 AM 68.0 °F 67.1 °F 97% 30.06 in 10.0 mi Calm Calm - N/A   Clear
1:15 AM 67.3 °F 66.6 °F 98% 30.06 in 10.0 mi Calm Calm - N/A   Clear
1:35 AM 67.1 °F 66.4 °F 98% 30.06 in 10.0 mi SSE 3.5 mph - N/A   Clear
1:55 AM 67.3 °F 66.4 °F 97% 30.05 in 10.0 mi South 3.5 mph - N/A   Clear
2:15 AM 67.3 °F 66.4 °F 97% 30.05 in 10.0 mi Calm Calm - N/A   Clear
2:35 AM 66.9 °F 66.2 °F 98% 30.05 in 10.0 mi Calm Calm - N/A   Clear
2:55 AM 67.1 °F 66.2 °F 97% 30.05 in 10.0 mi SSE 3.5 mph - N/A   Clear
3:15 AM 67.1 °F 66.2 °F 97% 30.04 in 10.0 mi SSE 3.5 mph - N/A   Scattered Clouds
3:35 AM 66.9 °F 66.4 °F 98% 30.04 in 10.0 mi Calm Calm - N/A   Clear
3:55 AM 66.2 °F 66.2 °F 100% 30.05 in 5.0 mi Calm Calm - N/A   Clear
4:15 AM 65.7 °F 65.7 °F 100% 30.05 in 4.0 mi Calm Calm - N/A   Scattered Clouds
4:35 AM 65.3 °F 65.3 °F 100% 30.06 in 0.5 mi Calm Calm - N/A Fog Fog
4:55 AM 63.7 °F 63.7 °F 100% 30.06 in 0.5 mi Calm Calm - N/A Fog Fog
5:15 AM 62.6 °F 62.6 °F 100% 30.07 in 0.5 mi Calm Calm - N/A Fog Fog
5:35 AM 62.6 °F 62.6 °F 100% 30.07 in 1.0 mi Calm Calm - N/A   Overcast
5:55 AM 62.6 °F 62.6 °F 100% 30.08 in 0.5 mi Calm Calm - N/A Fog Fog
6:15 AM 63.0 °F 63.0 °F 100% 30.09 in 0.5 mi Calm Calm - N/A Fog Fog
6:35 AM 63.1 °F 63.1 °F 100% 30.09 in 0.2 mi Calm Calm - N/A Fog Fog
6:55 AM 63.0 °F 63.0 °F 100% 30.09 in 0.2 mi Calm Calm - N/A Fog Fog
7:15 AM 63.5 °F 63.5 °F 100% 30.09 in 0.8 mi Calm Calm - N/A   Overcast
7:35 AM 64.4 °F 64.4 °F 100% 30.08 in 0.2 mi Calm Calm - N/A Fog Fog
7:55 AM 66.4 °F 66.4 °F 100% 30.08 in 1.0 mi Calm Calm - N/A   Overcast
8:15 AM 67.8 °F 67.5 °F 99% 30.08 in 10.0 mi Calm Calm - N/A   Clear
8:35 AM 70.3 °F 68.4 °F 93% 30.09 in 10.0 mi Calm Calm - N/A   Clear
8:55 AM 71.8 °F 69.1 °F 91% 30.09 in 10.0 mi Calm Calm - N/A   Clear
9:15 AM 73.2 °F 69.1 °F 87% 30.10 in 10.0 mi Calm Calm - N/A   Clear
9:35 AM 73.4 °F 68.5 °F 85% 30.10 in 10.0 mi NW 4.6 mph - N/A Thunderstorm Scattered Clouds
9:55 AM 73.0 °F 64.8 °F 75% 30.10 in 10.0 mi NNW 19.6 mph 26.5 mph N/A   Mostly Cloudy
10:15 AM 66.4 °F 61.2 °F 83% 30.11 in 10.0 mi North 16.1 mph 25.3 mph N/A   Overcast
10:35 AM 63.0 °F 61.2 °F 94% 30.12 in 5.0 mi NNW 13.8 mph 24.2 mph 0.06 in Rain Rain
10:55 AM 62.8 °F 60.6 °F 93% 30.11 in 10.0 mi NNW 11.5 mph - 0.08 in Rain Light Rain
11:15 AM 62.6 °F 60.8 °F 94% 30.11 in 7.0 mi NW 5.8 mph - 0.05 in Rain Rain
11:35 AM 63.7 °F 61.5 °F 93% 30.08 in 4.0 mi Calm Calm - 0.10 in Rain Rain
11:55 AM 65.8 °F 61.7 °F 86% 30.07 in 10.0 mi Calm Calm - 0.10 in   Scattered Clouds
12:15 PM 67.6 °F 63.3 °F 86% 30.07 in 10.0 mi WNW 4.6 mph - N/A   Clear
12:35 PM 68.9 °F 63.7 °F 83% 30.06 in 10.0 mi NW 3.5 mph - N/A   Clear
12:55 PM 71.4 °F 62.4 °F 73% 30.06 in 10.0 mi Calm Calm - N/A   Clear
1:15 PM 73.2 °F 61.2 °F 66% 30.05 in 10.0 mi Calm Calm - N/A   Clear
1:35 PM 73.4 °F 59.5 °F 62% 30.04 in 10.0 mi Calm Calm - N/A   Clear
1:55 PM 74.8 °F 61.7 °F 64% 30.04 in 10.0 mi NNW 3.5 mph - N/A   Clear
2:15 PM 75.0 °F 62.2 °F 64% 30.03 in 10.0 mi Calm Calm - N/A   Clear
2:35 PM 75.9 °F 59.9 °F 57% 30.02 in 10.0 mi Calm Calm - N/A   Clear
2:55 PM 76.3 °F 60.1 °F 57% 30.02 in 10.0 mi Calm Calm - N/A   Clear
3:15 PM 76.1 °F 61.0 °F 59% 30.02 in 10.0 mi Calm Calm - N/A   Clear
3:35 PM 75.2 °F 61.3 °F 62% 30.02 in 10.0 mi Calm Calm - N/A   Clear
3:55 PM 75.9 °F 59.7 °F 57% 30.02 in 10.0 mi NE 5.8 mph - N/A   Clear
4:15 PM 75.6 °F 57.9 °F 54% 30.01 in 10.0 mi NE 4.6 mph - N/A   Clear
4:35 PM 74.8 °F 59.4 °F 58% 30.02 in 10.0 mi NNE 3.5 mph - N/A   Clear
4:55 PM 74.3 °F 59.0 °F 59% 30.02 in 10.0 mi NE 4.6 mph - N/A   Clear
5:15 PM 72.9 °F 59.4 °F 62% 30.03 in 10.0 mi Calm Calm - N/A   Clear
5:35 PM 70.7 °F 59.7 °F 68% 30.04 in 10.0 mi Calm Calm - N/A   Clear
5:55 PM 69.1 °F 59.9 °F 72% 30.04 in 10.0 mi Calm Calm - N/A   Clear
6:15 PM 67.6 °F 61.7 °F 81% 30.04 in 10.0 mi Calm Calm - N/A   Clear
6:35 PM 66.9 °F 61.7 °F 83% 30.05 in 10.0 mi Calm Calm - N/A   Clear
6:55 PM 66.6 °F 62.6 °F 87% 30.05 in 10.0 mi ESE 3.5 mph - N/A   Clear
7:15 PM 66.2 °F 62.8 °F 89% 30.06 in 10.0 mi ESE 4.6 mph - N/A   Clear
7:35 PM 65.8 °F 63.0 °F 90% 30.06 in 10.0 mi ESE 3.5 mph - N/A   Clear
7:55 PM 64.8 °F 62.6 °F 93% 30.07 in 10.0 mi Calm Calm - N/A   Clear
8:15 PM 65.3 °F 63.1 °F 93% 30.07 in 10.0 mi Calm Calm - N/A   Clear
8:35 PM 64.4 °F 62.6 °F 94% 30.07 in 10.0 mi Calm Calm - N/A   Clear
8:55 PM 64.0 °F 62.6 °F 95% 30.07 in 10.0 mi East 4.6 mph - N/A   Clear
9:15 PM 63.7 °F 62.6 °F 96% 30.07 in 10.0 mi East 3.5 mph - N/A   Clear
9:35 PM 63.3 °F 62.4 °F 97% 30.08 in 10.0 mi East 3.5 mph - N/A   Clear
9:55 PM 62.8 °F 62.1 °F 97% 30.08 in 10.0 mi ENE 3.5 mph - N/A   Clear
10:15 PM 62.8 °F 62.1 °F 97% 30.08 in 10.0 mi ENE 4.6 mph - N/A   Clear
10:35 PM 62.6 °F 61.9 °F 97% 30.08 in 10.0 mi ENE 3.5 mph - N/A   Clear